Change the Weather History Date:

Monday, May 6, 2013

  Actual Average Record
Temperature  
Mean Temperature 65 °F -  
Max Temperature 80 °F 86 °F 93 °F (2012)
Min Temperature 51 °F 63 °F 51 °F (2013)
Growing Degree Days 15 (Base 50)    
Moisture  
Dew Point 50 °F    
Average Humidity 59    
Maximum Humidity 90    
Minimum Humidity 33    
Precipitation  
Precipitation 0.00 in - - ()
Sea Level Pressure  
Sea Level Pressure 30.06 in    
Wind  
Wind Speed 3 mph (ENE)    
Max Wind Speed 10 mph    
Max Gust Speed 16 mph    
Visibility 10 miles    
Events Rain    
Averages and records for this station are not official NWS values.
T = Trace of Precipitation, MM = Missing Value Source: NWS Daily Summary

Daily Weather History Graph

Daily Weather History Graph

Search for Another Location

Airport or City:

Trip Planner

Search our weather history database for the weather conditions in past years. The results will help you decide how hot, cold, wet, or windy it might be!

Date:

Astronomy

May. 06, 2013 Rise Set
Actual Time 6:48 AM CDT 8:13 PM CDT
Civil Twilight 6:23 AM CDT 8:38 PM CDT
Nautical Twilight 5:52 AM CDT 9:08 PM CDT
Astronomical Twilight 5:21 AM CDT 9:40 PM CDT
Moon 4:36 AM CDT (5/6) 5:26 PM CDT (5/6)
Length of Visible Light 14h 15m
Length of Day
13h 24m
Waning Crescent, 11% of the Moon is Illuminated
May 6
Waning Crescent
May 9
New
May 17
First Quarter
May 24
Full
May 31
Last Quarter

Hourly Weather History & Observations

Time (CDT) Temp. Dew Point Humidity Pressure Visibility Wind Dir Wind Speed Gust Speed Precip Events Conditions
12:15 AM 61.2 °F 46.9 °F 60% 30.09 in 10.0 mi East 4.6 mph - N/A   Clear
12:35 AM 60.8 °F 46.9 °F 60% 30.09 in 10.0 mi Calm Calm - N/A   Clear
12:55 AM 59.5 °F 47.1 °F 63% 30.09 in 10.0 mi Calm Calm - N/A   Clear
1:15 AM 58.8 °F 47.3 °F 66% 30.09 in 10.0 mi Calm Calm - N/A   Clear
1:35 AM 56.3 °F 46.9 °F 71% 30.09 in 10.0 mi Calm Calm - N/A   Clear
1:55 AM 55.2 °F 47.1 °F 74% 30.08 in 10.0 mi Calm Calm - N/A   Clear
2:15 AM 56.8 °F 46.9 °F 69% 30.08 in 10.0 mi Calm Calm - N/A   Clear
2:35 AM 56.3 °F 47.1 °F 71% 30.07 in 10.0 mi Calm Calm - N/A   Clear
2:55 AM 54.7 °F 47.3 °F 76% 30.07 in 10.0 mi Calm Calm - N/A   Clear
3:15 AM 54.5 °F 46.9 °F 76% 30.06 in 10.0 mi Calm Calm - N/A   Clear
3:35 AM 54.0 °F 47.1 °F 78% 30.06 in 10.0 mi Calm Calm - N/A   Clear
3:55 AM 52.7 °F 47.1 °F 81% 30.06 in 10.0 mi Calm Calm - N/A   Clear
4:15 AM 53.8 °F 47.3 °F 79% 30.06 in 10.0 mi NE 3.5 mph - N/A   Clear
4:35 AM 53.2 °F 46.9 °F 79% 30.06 in 10.0 mi Calm Calm - N/A   Clear
4:55 AM 51.8 °F 46.6 °F 82% 30.06 in 10.0 mi Calm Calm - N/A   Clear
5:15 AM 51.8 °F 47.3 °F 85% 30.06 in 10.0 mi Calm Calm - N/A   Clear
5:35 AM 52.7 °F 47.7 °F 83% 30.06 in 10.0 mi Calm Calm - N/A   Clear
5:55 AM 52.7 °F 48.0 °F 84% 30.06 in 10.0 mi Calm Calm - N/A   Clear
6:15 AM 52.3 °F 48.2 °F 86% 30.07 in 10.0 mi Calm Calm - N/A   Clear
6:35 AM 52.5 °F 48.2 °F 85% 30.08 in 10.0 mi Calm Calm - N/A   Clear
6:55 AM 51.6 °F 47.8 °F 87% 30.08 in 10.0 mi Calm Calm - N/A   Clear
7:15 AM 52.0 °F 48.2 °F 87% 30.10 in 10.0 mi Calm Calm - N/A   Clear
7:35 AM 53.1 °F 50.2 °F 90% 30.10 in 10.0 mi Calm Calm - N/A   Clear
7:55 AM 56.8 °F 51.6 °F 83% 30.11 in 10.0 mi Calm Calm - N/A   Clear
8:15 AM 60.1 °F 52.7 °F 77% 30.11 in 10.0 mi ENE 3.5 mph - N/A   Scattered Clouds
8:35 AM 61.9 °F 52.0 °F 70% 30.12 in 10.0 mi Calm Calm - N/A   Scattered Clouds
8:55 AM 62.6 °F 52.0 °F 68% 30.13 in 10.0 mi Calm Calm - N/A   Clear
9:15 AM 65.3 °F 52.5 °F 63% 30.14 in 10.0 mi NE 3.5 mph - N/A   Clear
9:35 AM 66.9 °F 50.9 °F 56% 30.15 in 10.0 mi ENE 3.5 mph - N/A   Scattered Clouds
9:55 AM 68.9 °F 52.9 °F 57% 30.15 in 10.0 mi Calm Calm - N/A   Clear
10:15 AM 69.6 °F 54.7 °F 59% 30.15 in 10.0 mi Calm Calm - N/A   Clear
10:35 AM 71.1 °F 53.8 °F 54% 30.14 in 10.0 mi Calm Calm - N/A   Clear
10:55 AM 72.3 °F 54.0 °F 52% 30.14 in 10.0 mi SE 4.6 mph - N/A   Clear
11:15 AM 73.4 °F 53.6 °F 50% 30.13 in 10.0 mi East 5.8 mph - N/A   Clear
11:35 AM 74.5 °F 54.1 °F 49% 30.11 in 10.0 mi East 6.9 mph - N/A   Clear
11:55 AM 75.2 °F 52.2 °F 44% 30.10 in 10.0 mi East 6.9 mph - N/A   Clear
12:15 PM 75.7 °F 51.3 °F 42% 30.09 in 10.0 mi East 4.6 mph 16.1 mph N/A   Clear
12:35 PM 75.0 °F 49.5 °F 40% 30.09 in 10.0 mi East 5.8 mph - N/A   Clear
12:55 PM 74.7 °F 50.4 °F 42% 30.08 in 10.0 mi East 5.8 mph - N/A   Clear
1:15 PM 75.9 °F 50.9 °F 41% 30.07 in 10.0 mi ESE 5.8 mph - N/A   Clear
1:35 PM 78.1 °F 51.6 °F 40% 30.06 in 10.0 mi East 6.9 mph - N/A   Clear
1:55 PM 78.8 °F 49.8 °F 36% 30.06 in 10.0 mi ENE 4.6 mph - N/A   Clear
2:15 PM 79.2 °F 50.0 °F 36% 30.05 in 10.0 mi ENE 6.9 mph - N/A   Clear
2:35 PM 79.0 °F 48.9 °F 35% 30.04 in 10.0 mi NE 6.9 mph - N/A   Clear
2:55 PM 79.3 °F 47.8 °F 33% 30.04 in 10.0 mi NE 9.2 mph - N/A   Clear
3:15 PM 78.8 °F 48.2 °F 34% 30.04 in 10.0 mi NE 5.8 mph - N/A   Clear
3:35 PM 77.4 °F 46.4 °F 33% 30.04 in 10.0 mi Calm Calm - N/A   Clear
3:55 PM 76.1 °F 47.3 °F 36% 30.02 in 10.0 mi ENE 6.9 mph - N/A   Mostly Cloudy
4:15 PM 76.5 °F 47.7 °F 36% 29.98 in 10.0 mi East 10.4 mph - N/A Rain Light Rain
4:35 PM 77.2 °F 47.8 °F 35% 29.97 in 10.0 mi East 10.4 mph 16.1 mph N/A   Scattered Clouds
4:55 PM 76.3 °F 47.8 °F 37% 29.98 in 10.0 mi ENE 9.2 mph - N/A   Scattered Clouds
5:15 PM 76.1 °F 48.6 °F 38% 29.98 in 10.0 mi ENE 5.8 mph - N/A   Scattered Clouds
5:55 PM 76.3 °F 51.1 °F 41% 29.99 in 10.0 mi NNE 6.9 mph - N/A   Scattered Clouds
6:15 PM 75.0 °F 51.6 °F 44% 29.99 in 10.0 mi NNE 8.1 mph - N/A   Clear
6:35 PM 74.7 °F 51.1 °F 44% 29.99 in 10.0 mi NE 8.1 mph - N/A   Clear
6:55 PM 74.3 °F 51.1 °F 44% 29.99 in 10.0 mi NNE 9.2 mph - N/A   Clear
7:15 PM 73.6 °F 51.3 °F 45% 29.98 in 10.0 mi NE 9.2 mph - N/A   Clear
7:35 PM 73.0 °F 50.0 °F 44% 29.99 in 10.0 mi NE 6.9 mph - N/A   Clear
7:55 PM 72.1 °F 49.8 °F 45% 29.99 in 10.0 mi NE 5.8 mph - N/A   Clear
8:15 PM 70.9 °F 50.0 °F 48% 29.99 in 10.0 mi ENE 5.8 mph - N/A   Clear
8:35 PM 69.4 °F 50.5 °F 51% 30.01 in 10.0 mi NE 5.8 mph - N/A   Clear
8:55 PM 68.0 °F 50.9 °F 54% 30.02 in 10.0 mi ENE 4.6 mph - N/A   Clear
9:15 PM 67.3 °F 51.1 °F 56% 30.03 in 10.0 mi NNE 3.5 mph - N/A   Clear
9:35 PM 65.5 °F 51.3 °F 60% 30.03 in 10.0 mi Calm Calm - N/A   Clear
9:55 PM 64.9 °F 50.9 °F 60% 30.04 in 10.0 mi Calm Calm - N/A   Clear
10:15 PM 63.9 °F 51.1 °F 63% 30.05 in 10.0 mi ESE 3.5 mph - N/A   Clear
10:35 PM 62.8 °F 51.1 °F 66% 30.05 in 10.0 mi East 4.6 mph - N/A   Clear
10:55 PM 63.9 °F 50.9 °F 63% 30.05 in 10.0 mi ENE 5.8 mph - N/A   Clear
11:15 PM 64.0 °F 50.9 °F 62% 30.05 in 10.0 mi East 3.5 mph - N/A   Clear
11:35 PM 62.8 °F 50.9 °F 65% 30.04 in 10.0 mi ESE 4.6 mph - N/A   Clear
11:55 PM 61.5 °F 50.9 °F 68% 30.04 in 10.0 mi East 4.6 mph - N/A   Clear